Tacoma Narrows, WA
on Monday, February 4, 2013

Monday
Previous Day Next Day
Daily Summary
 ActualAverageRecord
Temperature
Mean Temperature °F °F  
Max Temperature 50°F 46°F 57°F (2009)
Min Temperature 42°F 36°F 28°F (2014)
Degree Days
Heating Degree Days 19    
Moisture
Dew Point 40°F   
Average Humidity 79    
Maximum Humidity 89    
Minimum Humidity 68    
Precipitation
Precipitation 0.00 in in in ()
Wind
Wind Speed 6 mph   
Max Wind Speed 10 mph   
Max Gust Speed mph   
Visibility 10 miles   
Events Rain   
Averages and records for this station are not official NWS values.
Key: T is trace of precipitation, MM is missing value
Source: NWS Daily Summary
Seasonal Weather Averages
Time(PST)TemperatureDew PointHumidity Pressure Visibility Wind DirectionWind SpeedGust SpeedPrecipitationEvents Conditions
12:11 AM 44.6°F 41.0°F 87% 30.21 in 9.0 miles SSW 5.8 mph - N/A   Overcast
12:53 AM 44.1°F 39.9°F 85% 30.22 in 10.0 miles SSW 10.4 mph - N/A   Overcast
2:53 AM 44.6°F 39.2°F 81% 30.20 in 10.0 miles South 8.1 mph - N/A   Overcast
3:53 AM 44.1°F 39.9°F 85% 30.19 in 10.0 miles South 6.9 mph - N/A   Overcast
4:53 AM 44.1°F 39.9°F 85% 30.18 in 10.0 miles South 5.8 mph - N/A   Overcast
5:53 AM 44.1°F 39.9°F 85% 30.18 in 10.0 miles SSW 6.9 mph - N/A   Overcast
6:53 AM 44.1°F 39.0°F 82% 30.17 in 10.0 miles South 6.9 mph - N/A   Overcast
7:53 AM 44.1°F 39.9°F 85% 30.17 in 10.0 miles South 6.9 mph - N/A   Overcast
8:53 AM 45.0°F 39.9°F 82% 30.17 in 10.0 miles South 8.1 mph - N/A   Mostly Cloudy
9:53 AM 46.0°F 39.9°F 79% 30.17 in 10.0 miles SSW 4.6 mph - N/A   Overcast
10:53 AM 46.9°F 39.9°F 77% 30.16 in 10.0 miles South 3.5 mph - N/A   Overcast
11:33 AM 46.4°F 39.2°F 76% 30.15 in 10.0 miles South 3.5 mph - N/A   Scattered Clouds
11:53 AM 46.9°F 39.9°F 77% 30.15 in 10.0 miles South 4.6 mph - N/A   Scattered Clouds
12:53 PM 48.9°F 39.9°F 71% 30.11 in 10.0 miles SSW 3.5 mph - N/A   Scattered Clouds
1:53 PM 50.0°F 39.9°F 68% 30.08 in 10.0 miles WNW 4.6 mph - N/A   Clear
2:53 PM 50.0°F 39.9°F 68% 30.04 in 10.0 miles Calm Calm - N/A   Scattered Clouds
3:53 PM 48.9°F 39.9°F 71% 30.03 in 10.0 miles Calm Calm - N/A   Scattered Clouds
4:53 PM 48.0°F 39.0°F 71% 30.03 in 10.0 miles Calm Calm - N/A   Mostly Cloudy
5:53 PM 46.9°F 39.0°F 74% 30.01 in 10.0 miles Calm Calm - N/A   Overcast
6:53 PM 46.9°F 39.9°F 77% 29.96 in 10.0 miles NE 4.6 mph - N/A   Overcast
7:53 PM 46.9°F 39.9°F 77% 29.91 in 10.0 miles NNE 5.8 mph - 0.00 in Rain Light Rain
8:53 PM 46.9°F 39.9°F 77% 29.92 in 10.0 miles WNW 3.5 mph - N/A   Overcast
9:53 PM 46.0°F 39.9°F 79% 29.92 in 10.0 miles WSW 4.6 mph - N/A   Overcast
10:53 PM 42.1°F 39.0°F 89% 29.91 in 10.0 miles South 5.8 mph - N/A   Partly Cloudy
11:53 PM 44.1°F 39.9°F 85% 29.92 in 10.0 miles SW 9.2 mph - N/A   Partly Cloudy
Moon Phase
Feb. 04 Feb. 10 Feb. 17 Feb. 25 Mar. 04
Sunrise:07:31 AM (PST) Moon Rise:02:18 AM (PST)2/4
Sunset:05:17 PM (PST) Moon Set:11:39 AM (PST)2/4

Copyright © 2014 The Weather Underground, Inc.